Weather in Alabuga

Russia / Chelyabinsk Oblast     55°32′06″N   62°20′13″E
temp.,
°C
wind,
m/s
gust,
m/s
humid.,
%
clouds,
%
prec.,
mm/h
press.,
hPa
HPBL,
m
21 january, thu
thu2123:00−17w61386100 0.3 1012421
02:00−19w51388100 0.0 1013433
05:00−21w51288100 0.0 1014309
08:00−23w4109083 0.0 1013219
11:00−21w598884 0.0 1014387
14:00−18w589387 0.1 1014497
17:00−19w359292 0.1 101492
20:00−21w459288 0.0 101584
22 january, fri
fri2223:00−21w369383 0.0 101591
02:00−21w369499 0.0 1015123
05:00−21w379699 0.1 1016157
08:00−22w349698 0.0 101777
11:00−19wnw369698 0.1 1018255
14:00−18nnw349398 0.1 1019417
17:00−22nne359898 0.1 1021129
20:00−25nne3697100 0.1 1024206
23 january, sat
sat2323:00−30n339690 0.1 102729
02:00−31nnw34989 0.0 103036
05:00−33nnw34995 0.0 103331
08:00−34nnw239886 0.0 103621
11:00−33n129667 0.0 103743
14:00−30sse119215 0.0 1037136
17:00−30sse339555 0.0 103770
20:00−28sse4795100 0.0 1037220
24 january, sun
sun2423:00−26s5895100 0.0 1035268
02:00−24s5898100 0.4 1033296
05:00−23sse4798100 0.9 1032277
08:00−22se3698100 0.4 1032236
11:00−21se4597100 0.6 1032232
14:00−18se4596100 0.1 1031241
17:00−17se4697100 0.5 1030246
20:00−16se4696100 0.8 1030229
25 january, mon
mon2523:00−15se4696100 1.4 1029195
02:00−12s3596100 0.1 1028124
05:00−6sw359698 0.3 1026112
08:00−1wsw5109791 0.4 1026455
11:00−1w5119694 0.9 1026529
14:00+1w5129074 0.2 1026559
17:000w4118879 0.2 1027367
20:00−2w4129077 0.0 1028362